Location: *
(45.9500°N, 9.0833°E)
Time: 23:59:14
(UTC+00:00)

Tiros 1 despin weight - Pass Details

Date: 24 June 2021
Orbit: 593 x 642 km, 48.2° (Epoch: 02 August)

Event Time Altitude Azimuth Distance (km) Brightness Sun altitude
Rises 08:27:01 0° 288° (WNW) 2,828 ? 47.6°
Reaches altitude 10° 08:29:19 10° 285° (WNW) 1,925 ? 48.0°
Maximum altitude 08:33:39 59° 206° (SSW) 685 ? 48.7°
Drops below altitude 10° 08:38:00 10° 127° (SE) 1,931 ? 49.4°
Sets 08:40:19 0° 124° (ESE) 2,837 ? 49.8°
